Weather History for Colorado Springs, CO

Change the Weather History Date:

Sunday, December 16, 2012

  Actual Average Record
Temperature  
Mean Temperature 35 °F 29 °F  
Max Temperature 45 °F 41 °F 67 °F (1952)
Min Temperature 24 °F 17 °F -4 °F (1914)
Degree Days  
Heating Degree Days 30 36  
Month to date heating degree days 473 558  
Since 1 July heating degree days 1709 2039  
Cooling Degree Days 0 0  
Month to date cooling degree days 0 0  
Year to date cooling degree days 873 455  
Moisture  
Dew Point 12 °F    
Average Humidity 40    
Maximum Humidity 61    
Minimum Humidity 18    
Precipitation  
Precipitation 0.00 in 0.01 in 0.13 in (1989)
Month to date precipitation 0.12 0.19  
Year to date precipitation 7.97 16.39  
Snow  
Snow 0.00 in 0.20 in 2.80 in (1989)
Month to date snowfall 3.3 3.1  
Since 1 July snowfall 4.2 10.9  
Snow Depth 0.00 in    
Sea Level Pressure  
Sea Level Pressure 29.76 in    
Wind  
Wind Speed 7 mph (NNW)    
Max Wind Speed 18 mph    
Max Gust Speed 32 mph    
Visibility 10 miles    
Events      
T = Trace of Precipitation, MM = Missing Value Source: NWS Daily Summary

Daily Weather History Graph

Daily Weather History Graph

Search for Another Location

Airport:

Trip Planner

Search our weather history database for the weather conditions in past years. The results will help you decide how hot, cold, wet, or windy it might be!

Date:

Astronomy

Dec. 16, 2012 Rise Set
Actual Time 7:10 AM MST 4:38 PM MST
Civil Twilight 6:41 AM MST 5:08 PM MST
Nautical Twilight 6:07 AM MST 5:41 PM MST
Astronomical Twilight 5:35 AM MST 6:14 PM MST
Moon 9:47 AM MST (12/16) 8:53 PM MST (12/16)
Length of Visible Light 10h 27m
Length of Day
9h 27m
Waxing Crescent, 16% of the Moon is Illuminated
Dec 16
Waxing Crescent
Dec 19
First Quarter
Dec 28
Full
Jan 4
Last Quarter
Jan 11
New

Hourly Weather History & Observations

Time (MST) Temp. Windchill Dew Point Humidity Pressure Visibility Wind Dir Wind Speed Gust Speed Precip Events Conditions
12:54 AM 33.8 °F 28.6 °F 12.2 °F 41% 29.66 in 10.0 mi NW 5.8 mph - N/A   Scattered Clouds
1:54 AM 32.0 °F 27.5 °F 14.0 °F 48% 29.68 in 10.0 mi North 4.6 mph - N/A   Overcast
2:54 AM 35.1 °F - 14.0 °F 42% 29.67 in 10.0 mi Calm Calm - N/A   Overcast
3:54 AM 33.1 °F 28.7 °F 14.0 °F 46% 29.68 in 10.0 mi NNW 4.6 mph - N/A   Overcast
4:54 AM 30.0 °F 24.1 °F 14.0 °F 51% 29.74 in 10.0 mi West 5.8 mph - N/A   Partly Cloudy
5:54 AM 30.2 °F 26.7 °F 12.2 °F 47% 29.68 in 10.0 mi West 3.5 mph - N/A   Partly Cloudy
6:54 AM 27.0 °F 23.0 °F 10.9 °F 51% 29.79 in 10.0 mi NW 3.5 mph - N/A   Clear
7:54 AM 26.1 °F 21.9 °F 10.0 °F 51% 29.82 in 10.0 mi ENE 3.5 mph - N/A   Clear
8:54 AM 35.1 °F - 12.9 °F 40% 29.78 in 10.0 mi Calm Calm - N/A   Partly Cloudy
9:54 AM 32.0 °F 26.4 °F 19.9 °F 61% 29.81 in 10.0 mi SSE 5.8 mph - N/A   Partly Cloudy
10:54 AM 34.0 °F - 21.0 °F 59% 29.76 in 10.0 mi Calm Calm - N/A   Partly Cloudy
11:54 AM 37.0 °F 30.4 °F 21.0 °F 52% 29.71 in 10.0 mi SSW 9.2 mph - N/A   Partly Cloudy
12:54 PM 41.0 °F 35.8 °F 15.1 °F 35% 29.66 in 10.0 mi SW 8.1 mph - N/A   Scattered Clouds
1:54 PM 42.1 °F 38.4 °F 7.0 °F 24% 29.65 in 10.0 mi West 5.8 mph - N/A   Scattered Clouds
2:54 PM 44.1 °F 39.0 °F 7.0 °F 22% 29.63 in 10.0 mi SW 9.2 mph - N/A   Mostly Cloudy
3:54 PM 42.1 °F 34.2 °F 1.0 °F 18% 29.69 in 10.0 mi NW 16.1 mph - N/A   Mostly Cloudy
4:54 PM 39.0 °F 33.4 °F 5.0 °F 24% 29.75 in 10.0 mi NNW 8.1 mph - N/A   Mostly Cloudy
5:54 PM 33.1 °F 23.9 °F 10.9 °F 40% 29.83 in 10.0 mi North 12.7 mph - N/A   Scattered Clouds
6:54 PM 32.0 °F 21.6 °F 14.0 °F 48% 29.89 in 10.0 mi North 15.0 mph - N/A   Partly Cloudy
7:54 PM 28.9 °F 19.2 °F 12.0 °F 49% 29.93 in 10.0 mi North 11.5 mph - N/A   Clear
8:54 PM 30.9 °F 25.2 °F 9.0 °F 40% 29.88 in 10.0 mi North 5.8 mph - N/A   Clear
9:54 PM 26.1 °F 19.4 °F 8.1 °F 47% 29.90 in 10.0 mi SE 5.8 mph - N/A   Clear
10:54 PM 25.0 °F 19.3 °F 6.1 °F 45% 29.90 in 10.0 mi NE 4.6 mph - N/A   Clear
11:54 PM 28.0 °F 20.0 °F 5.0 °F 38% 29.85 in 10.0 mi NNE 8.1 mph 17.3 mph N/A   Clear